TimeEDT,TemperatureF,Dew PointF,Humidity,Sea Level PressureIn,VisibilityMPH,Wind Direction,Wind SpeedMPH,Gust SpeedMPH,PrecipitationIn,Events,Conditions,WindDirDegrees,DateUTC
12:54 AM,46.0,27.0,47,29.84,10.0,Calm,Calm,-,N/A,,Partly Cloudy,0,2012-11-02 04:54:00
1:54 AM,41.0,28.0,60,29.85,10.0,Calm,Calm,-,N/A,,Clear,0,2012-11-02 05:54:00
2:54 AM,36.0,30.0,79,29.85,10.0,North,6.9,-,N/A,,Clear,350,2012-11-02 06:54:00
3:54 AM,39.9,28.9,65,29.87,10.0,North,9.2,-,N/A,,Clear,360,2012-11-02 07:54:00
4:54 AM,39.0,28.9,67,29.89,10.0,North,8.1,-,N/A,,Clear,360,2012-11-02 08:54:00
5:54 AM,37.0,28.9,73,29.91,10.0,North,5.8,-,N/A,,Scattered Clouds,350,2012-11-02 09:54:00
6:54 AM,34.0,28.0,79,29.93,10.0,NW,5.8,-,N/A,,Clear,320,2012-11-02 10:54:00
7:54 AM,34.0,28.0,79,29.96,10.0,North,8.1,-,N/A,,Partly Cloudy,350,2012-11-02 11:54:00
8:54 AM,36.0,28.9,76,29.99,10.0,North,6.9,-,N/A,,Scattered Clouds,350,2012-11-02 12:54:00
9:54 AM,41.0,32.0,70,30.01,10.0,North,10.4,-,N/A,,Scattered Clouds,10,2012-11-02 13:54:00
10:54 AM,45.0,32.0,60,30.04,10.0,NNE,11.5,-,N/A,,Scattered Clouds,20,2012-11-02 14:54:00
11:54 AM,46.9,32.0,56,30.05,10.0,North,11.5,-,N/A,,Scattered Clouds,360,2012-11-02 15:54:00
12:54 PM,48.9,30.9,50,30.05,10.0,Variable,3.5,16.1,N/A,,Scattered Clouds,0,2012-11-02 16:54:00
1:54 PM,50.0,32.0,50,30.04,10.0,NNW,11.5,-,N/A,,Scattered Clouds,330,2012-11-02 17:54:00
2:54 PM,50.0,30.9,48,30.04,10.0,North,8.1,-,N/A,,Scattered Clouds,350,2012-11-02 18:54:00
3:54 PM,51.1,32.0,48,30.04,10.0,NNW,10.4,-,N/A,,Mostly Cloudy,330,2012-11-02 19:54:00
4:54 PM,50.0,30.9,48,30.05,10.0,NNW,10.4,-,N/A,,Mostly Cloudy,330,2012-11-02 20:54:00
5:54 PM,48.9,28.9,46,30.05,10.0,NW,6.9,-,N/A,,Mostly Cloudy,310,2012-11-02 21:54:00
6:54 PM,44.1,30.0,58,30.06,10.0,NW,6.9,-,N/A,,Mostly Cloudy,320,2012-11-02 22:54:00
7:54 PM,45.0,30.0,56,30.08,10.0,North,6.9,-,N/A,,Mostly Cloudy,350,2012-11-02 23:54:00
8:54 PM,42.1,30.9,65,30.09,10.0,North,6.9,-,N/A,,Scattered Clouds,360,2012-11-03 00:54:00
9:54 PM,41.0,33.1,73,30.10,10.0,North,6.9,-,N/A,,Scattered Clouds,10,2012-11-03 01:54:00
10:54 PM,39.9,33.1,77,30.11,10.0,North,5.8,-,N/A,,Scattered Clouds,10,2012-11-03 02:54:00
11:54 PM,39.0,34.0,82,30.11,10.0,NNE,9.2,-,N/A,,Scattered Clouds,20,2012-11-03 03:54:00